Hourly Weather Medan

Today, 2 December, Wednesday

Time Temperature Precipitation Wind Pressure Humidity
00:00 +26°C° 0.4 mm 1 mps 755 mmHg 96%
01:00 +26°C° 0 mm 2 mps 755 mmHg 95%
02:00 +26°C° 0.5 mm 2 mps 755 mmHg 95%
03:00 +26°C° 0.5 mm 1 mps 754 mmHg 95%
04:00 +26°C° 0.5 mm 1 mps 754 mmHg 94%
05:00 +26°C° 0.1 mm 1 mps 754 mmHg 94%
06:00 +26°C° 0.1 mm 1 mps 754 mmHg 93%
07:00 +26°C° 0 mm 1 mps 755 mmHg 92%
08:00 +28°C° 0 mm 1 mps 755 mmHg 85%
09:00 +29°C° 0 mm 1 mps 755 mmHg 77%
10:00 +31°C° 0 mm 2 mps 756 mmHg 70%
11:00 +32°C° 0.1 mm 2 mps 755 mmHg 68%
12:00 +34°C° 0.1 mm 2 mps 755 mmHg 66%
13:00 +34°C° 0.1 mm 3 mps 754 mmHg 64%
14:00 +33°C° 1.1 mm 3 mps 754 mmHg 70%
15:00 +31°C° 1.1 mm 3 mps 753 mmHg 75%
16:00 +31°C° 1.1 mm 3 mps 752 mmHg 81%
17:00 +29°C° 1.9 mm 2 mps 753 mmHg 85%
18:00 +28°C° 1.9 mm 2 mps 753 mmHg 89%
19:00 +27°C° 1.9 mm 2 mps 754 mmHg 94%
20:00 +27°C° 1.9 mm 2 mps 754 mmHg 94%
21:00 +27°C° 1.9 mm 1 mps 755 mmHg 94%
22:00 +27°C° 1.9 mm 1 mps 755 mmHg 94%
23:00 +26°C° 0.7 mm 1 mps 755 mmHg 95%

Tomorrow, 3 December, Thursday

Time Temperature Precipitation Wind Pressure Humidity
00:00 +26°C° 0.7 mm 1 mps 755 mmHg 95%
01:00 +26°C° 0.7 mm 1 mps 755 mmHg 96%
02:00 +26°C° 0.2 mm 1 mps 754 mmHg 95%
03:00 +26°C° 0.2 mm 1 mps 754 mmHg 95%
04:00 +26°C° 0.2 mm 1 mps 753 mmHg 95%
05:00 +26°C° 0.1 mm 1 mps 754 mmHg 94%
06:00 +26°C° 0.1 mm 1 mps 754 mmHg 93%
07:00 +26°C° 0.1 mm 1 mps 754 mmHg 93%
08:00 +28°C° 0 mm 1 mps 755 mmHg 84%
09:00 +30°C° 0 mm 2 mps 755 mmHg 76%
10:00 +32°C° 0 mm 2 mps 756 mmHg 67%
11:00 +32°C° 0.1 mm 2 mps 755 mmHg 65%
12:00 +34°C° 0.1 mm 2 mps 754 mmHg 64%
13:00 +34°C° 0.1 mm 2 mps 754 mmHg 62%
14:00 +32°C° 1.4 mm 2 mps 753 mmHg 69%
15:00 +31°C° 1.4 mm 2 mps 753 mmHg 75%
16:00 +30°C° 1.4 mm 2 mps 752 mmHg 82%
17:00 +29°C° 3.4 mm 2 mps 753 mmHg 87%
18:00 +28°C° 3.4 mm 2 mps 753 mmHg 91%
19:00 +27°C° 3.4 mm 1 mps 754 mmHg 96%
20:00 +26°C° 9.7 mm 2 mps 755 mmHg 97%
21:00 +26°C° 9.7 mm 2 mps 755 mmHg 97%
22:00 +25°C° 9.7 mm 2 mps 756 mmHg 98%
23:00 +25°C° 2.8 mm 2 mps 755 mmHg 98%

Day after tomorrow, 4 December, Friday

Time Temperature Precipitation Wind Pressure Humidity
00:00 +25°C° 2.8 mm 2 mps 755 mmHg 97%
01:00 +25°C° 2.8 mm 2 mps 754 mmHg 97%
02:00 +25°C° 0.2 mm 1 mps 754 mmHg 96%
03:00 +25°C° 0.2 mm 1 mps 753 mmHg 95%
04:00 +23°C° 0.2 mm 0 mps 753 mmHg 94%
05:00 +23°C° 0 mm 0 mps 753 mmHg 94%
06:00 +23°C° 0 mm 0 mps 754 mmHg 94%
07:00 +23°C° 0 mm 0 mps 754 mmHg 93%
08:00 +25°C° 0 mm 0 mps 754 mmHg 88%
09:00 +28°C° 0 mm 1 mps 755 mmHg 83%
10:00 +30°C° 0 mm 1 mps 755 mmHg 78%
11:00 +30°C° 0.5 mm 1 mps 754 mmHg 77%
12:00 +31°C° 0.5 mm 2 mps 754 mmHg 76%
13:00 +31°C° 0.5 mm 2 mps 753 mmHg 75%
14:00 +31°C° 0.6 mm 2 mps 753 mmHg 77%
15:00 +31°C° 0.6 mm 2 mps 752 mmHg 78%
16:00 +30°C° 0.6 mm 1 mps 752 mmHg 80%
17:00 +29°C° 1.2 mm 1 mps 753 mmHg 84%
18:00 +28°C° 1.2 mm 1 mps 753 mmHg 88%
19:00 +27°C° 1.2 mm 1 mps 754 mmHg 92%
20:00 +26°C° 2.7 mm 1 mps 754 mmHg 94%
21:00 +26°C° 2.7 mm 1 mps 755 mmHg 95%
22:00 +26°C° 2.7 mm 1 mps 756 mmHg 96%
23:00 +26°C° 1.1 mm 1 mps 755 mmHg 96%

5 December, Saturday

Time Temperature Precipitation Wind Pressure Humidity
00:00 +26°C° 1.1 mm 1 mps 755 mmHg 96%
01:00 +26°C° 1.1 mm 1 mps 755 mmHg 96%
02:00 +26°C° 0.5 mm 1 mps 754 mmHg 96%
03:00 +26°C° 0.5 mm 1 mps 754 mmHg 95%
04:00 +24°C° 0.5 mm 0 mps 753 mmHg 95%
05:00 +24°C° 0.1 mm 0 mps 754 mmHg 95%
06:00 +26°C° 0.1 mm 1 mps 754 mmHg 94%
07:00 +26°C° 0.1 mm 1 mps 755 mmHg 94%
08:00 +27°C° 0.3 mm 1 mps 755 mmHg 89%
09:00 +29°C° 0.3 mm 1 mps 755 mmHg 84%
10:00 +31°C° 0.3 mm 1 mps 756 mmHg 78%
11:00 +31°C° 0.9 mm 1 mps 755 mmHg 78%
12:00 +31°C° 0.9 mm 2 mps 754 mmHg 78%
13:00 +31°C° 0.9 mm 2 mps 754 mmHg 79%
14:00 +31°C° 1.4 mm 2 mps 753 mmHg 81%
15:00 +30°C° 1.4 mm 2 mps 753 mmHg 84%
16:00 +30°C° 1.4 mm 2 mps 752 mmHg 86%
17:00 +29°C° 2.3 mm 1 mps 753 mmHg 89%
18:00 +28°C° 2.3 mm 1 mps 754 mmHg 92%
19:00 +27°C° 2.3 mm 1 mps 754 mmHg 94%
20:00 +27°C° 2.5 mm 1 mps 754 mmHg 95%
21:00 +26°C° 2.5 mm 1 mps 755 mmHg 96%
22:00 +26°C° 2.5 mm 1 mps 755 mmHg 97%
23:00 +26°C° 1.6 mm 1 mps 755 mmHg 97%

6 December, Sunday

Time Temperature Precipitation Wind Pressure Humidity
00:00 +26°C° 1.6 mm 1 mps 755 mmHg 97%
01:00 +26°C° 1.6 mm 1 mps 755 mmHg 97%
02:00 +26°C° 0.3 mm 1 mps 755 mmHg 97%
03:00 +25°C° 0.3 mm 1 mps 754 mmHg 97%
04:00 +25°C° 0.3 mm 1 mps 754 mmHg 97%
05:00 +25°C° 0.1 mm 1 mps 755 mmHg 97%
06:00 +25°C° 0.1 mm 1 mps 755 mmHg 97%
07:00 +26°C° 0.1 mm 1 mps 756 mmHg 96%
08:00 +27°C° 0.2 mm 1 mps 756 mmHg 89%
09:00 +27°C° 0.2 mm 0 mps 756 mmHg 81%
10:00 +29°C° 0.2 mm 0 mps 756 mmHg 74%
11:00 +32°C° 1.1 mm 1 mps 756 mmHg 73%
12:00 +32°C° 1.1 mm 1 mps 755 mmHg 73%
13:00 +32°C° 1.1 mm 2 mps 754 mmHg 72%
14:00 +32°C° 1.3 mm 2 mps 754 mmHg 76%
15:00 +31°C° 1.3 mm 2 mps 754 mmHg 81%
16:00 +30°C° 1.3 mm 2 mps 753 mmHg 85%
17:00 +29°C° 0.5 mm 1 mps 754 mmHg 88%
18:00 +28°C° 0.5 mm 1 mps 754 mmHg 90%
19:00 +25°C° 0.5 mm 0 mps 755 mmHg 93%
20:00 +25°C° 0 mm 0 mps 755 mmHg 93%
21:00 +24°C° 0 mm 0 mps 756 mmHg 94%
22:00 +24°C° 0 mm 0 mps 756 mmHg 95%
23:00 +26°C° 0.1 mm 1 mps 756 mmHg 95%

7 December, Monday

Time Temperature Precipitation Wind Pressure Humidity
00:00 +26°C° 0.1 mm 1 mps 756 mmHg 95%
01:00 +26°C° 0.1 mm 1 mps 755 mmHg 96%
02:00 +25°C° 0.1 mm 1 mps 755 mmHg 96%
03:00 +25°C° 0.1 mm 1 mps 755 mmHg 95%
04:00 +25°C° 0.1 mm 1 mps 755 mmHg 95%
05:00 +25°C° 0 mm 1 mps 755 mmHg 94%
06:00 +25°C° 0 mm 1 mps 755 mmHg 94%
07:00 +25°C° 0 mm 1 mps 756 mmHg 93%
08:00 +28°C° 0 mm 1 mps 756 mmHg 84%
09:00 +30°C° 0 mm 1 mps 756 mmHg 76%
10:00 +32°C° 0 mm 1 mps 756 mmHg 67%
11:00 +32°C° 0 mm 1 mps 756 mmHg 65%
12:00 +34°C° 0 mm 2 mps 755 mmHg 63%
13:00 +34°C° 0 mm 2 mps 755 mmHg 61%
14:00 +34°C° 0.5 mm 2 mps 754 mmHg 65%
15:00 +32°C° 0.5 mm 2 mps 754 mmHg 70%
16:00 +31°C° 0.5 mm 2 mps 754 mmHg 74%
17:00 +30°C° 0.5 mm 2 mps 754 mmHg 80%
18:00 +29°C° 0.5 mm 1 mps 755 mmHg 85%
19:00 +27°C° 0.5 mm 1 mps 755 mmHg 91%
20:00 +27°C° 0.4 mm 1 mps 756 mmHg 93%
21:00 +27°C° 0.4 mm 1 mps 756 mmHg 94%
22:00 +26°C° 0.4 mm 1 mps 757 mmHg 96%
23:00 +26°C° 0.6 mm 1 mps 756 mmHg 96%
Show more